When you browse on this site, cookies collect data to enhance your experience and personalize the content and advertising you see.
Visit our Privacy Policy to learn more. By continuing to use the site, you agree to this use of cookies and data.
  • En España
  • Lista de países
  • Para 7 días
  • Temperatura del agua
  • El tiempo en el mapa
  • Informadores
  • user-avatar
    Iniciar sesión

    Tiempo cada hora Chester

    Hoy, 15 Septiembre, Domingo

    Tiempo Temperatura Precipitaciones Viento Presión Humedad
    00:00 +12°C° 0 mm 3 mps 768 mmHg 86%
    01:00 +13°C° 0 mm 3 mps 767 mmHg 86%
    02:00 +13°C° 0 mm 4 mps 767 mmHg 86%
    03:00 +13°C° 0 mm 4 mps 767 mmHg 87%
    04:00 +14°C° 0 mm 3 mps 767 mmHg 88%
    05:00 +14°C° 0 mm 3 mps 767 mmHg 88%
    06:00 +16°C° 0 mm 2 mps 767 mmHg 87%
    07:00 +16°C° 0 mm 3 mps 767 mmHg 85%
    08:00 +17°C° 0 mm 3 mps 767 mmHg 83%
    09:00 +18°C° 0 mm 3 mps 767 mmHg 81%
    10:00 +18°C° 0 mm 3 mps 767 mmHg 81%
    11:00 +17°C° 0 mm 3 mps 767 mmHg 82%
    12:00 +17°C° 0 mm 2 mps 767 mmHg 83%
    13:00 +17°C° 0 mm 2 mps 766 mmHg 80%
    14:00 +18°C° 0 mm 1 mps 766 mmHg 78%
    15:00 +18°C° 0 mm 1 mps 766 mmHg 75%
    16:00 +18°C° 0.1 mm 1 mps 766 mmHg 77%
    17:00 +16°C° 0.1 mm 1 mps 766 mmHg 80%
    18:00 +16°C° 0.1 mm 1 mps 765 mmHg 82%
    19:00 +15°C° 0.4 mm 1 mps 765 mmHg 85%
    20:00 +15°C° 0.4 mm 1 mps 766 mmHg 88%
    21:00 +15°C° 0.4 mm 1 mps 766 mmHg 92%
    22:00 +15°C° 0.5 mm 1 mps 765 mmHg 93%
    23:00 +15°C° 0.5 mm 1 mps 765 mmHg 94%

    Mañana, 16 Septiembre, Lunes

    Tiempo Temperatura Precipitaciones Viento Presión Humedad
    00:00 +16°C° 0.5 mm 2 mps 765 mmHg 95%
    01:00 +16°C° 0.2 mm 2 mps 765 mmHg 95%
    02:00 +15°C° 0.2 mm 2 mps 764 mmHg 95%
    03:00 +15°C° 0.2 mm 2 mps 764 mmHg 95%
    04:00 +15°C° 0.1 mm 2 mps 764 mmHg 94%
    05:00 +14°C° 0.1 mm 2 mps 764 mmHg 94%
    06:00 +14°C° 0.1 mm 2 mps 764 mmHg 93%
    07:00 +13°C° 0 mm 3 mps 765 mmHg 91%
    08:00 +13°C° 0 mm 3 mps 765 mmHg 88%
    09:00 +13°C° 0 mm 4 mps 765 mmHg 85%
    10:00 +14°C° 0 mm 4 mps 766 mmHg 78%
    11:00 +15°C° 0 mm 4 mps 766 mmHg 72%
    12:00 +15°C° 0 mm 5 mps 766 mmHg 65%
    13:00 +15°C° 0 mm 5 mps 766 mmHg 65%
    14:00 +15°C° 0 mm 5 mps 766 mmHg 65%
    15:00 +15°C° 0 mm 5 mps 766 mmHg 64%
    16:00 +14°C° 0 mm 5 mps 766 mmHg 69%
    17:00 +13°C° 0 mm 4 mps 767 mmHg 73%
    18:00 +12°C° 0 mm 4 mps 767 mmHg 77%
    19:00 +12°C° 0 mm 4 mps 767 mmHg 79%
    20:00 +11°C° 0 mm 3 mps 768 mmHg 81%
    21:00 +11°C° 0 mm 3 mps 768 mmHg 82%
    22:00 +11°C° 0 mm 3 mps 768 mmHg 83%
    23:00 +10°C° 0 mm 3 mps 769 mmHg 84%

    Pasado mañana, 17 Septiembre, Martes

    Tiempo Temperatura Precipitaciones Viento Presión Humedad
    00:00 +10°C° 0 mm 3 mps 769 mmHg 85%
    01:00 +10°C° 0 mm 3 mps 769 mmHg 85%
    02:00 +10°C° 0 mm 3 mps 769 mmHg 84%
    03:00 +10°C° 0 mm 2 mps 768 mmHg 84%
    04:00 +10°C° 0 mm 2 mps 769 mmHg 84%
    05:00 +10°C° 0 mm 2 mps 769 mmHg 83%
    06:00 +10°C° 0 mm 2 mps 769 mmHg 83%
    07:00 +11°C° 0 mm 3 mps 769 mmHg 78%
    08:00 +12°C° 0 mm 3 mps 769 mmHg 74%
    09:00 +13°C° 0 mm 4 mps 769 mmHg 69%
    10:00 +14°C° 0 mm 3 mps 769 mmHg 67%
    11:00 +14°C° 0 mm 3 mps 769 mmHg 65%
    12:00 +16°C° 0 mm 3 mps 769 mmHg 62%
    13:00 +16°C° 0 mm 3 mps 769 mmHg 62%
    14:00 +15°C° 0 mm 4 mps 769 mmHg 63%
    15:00 +15°C° 0 mm 4 mps 768 mmHg 63%
    16:00 +14°C° 0 mm 3 mps 768 mmHg 68%
    17:00 +13°C° 0 mm 3 mps 768 mmHg 72%
    18:00 +13°C° 0 mm 2 mps 768 mmHg 77%
    19:00 +12°C° 0 mm 2 mps 769 mmHg 80%
    20:00 +10°C° 0 mm 2 mps 769 mmHg 83%
    21:00 +10°C° 0 mm 1 mps 770 mmHg 87%
    22:00 +10°C° 0 mm 1 mps 770 mmHg 88%
    23:00 +10°C° 0 mm 1 mps 770 mmHg 89%

    18 Septiembre, Miércoles

    Tiempo Temperatura Precipitaciones Viento Presión Humedad
    00:00 +10°C° 0 mm 1 mps 770 mmHg 90%
    01:00 +10°C° 0 mm 1 mps 770 mmHg 90%
    02:00 +10°C° 0 mm 1 mps 770 mmHg 89%
    03:00 +9°C° 0 mm 1 mps 770 mmHg 89%
    04:00 +9°C° 0 mm 1 mps 770 mmHg 89%
    05:00 +9°C° 0 mm 1 mps 770 mmHg 89%
    06:00 +9°C° 0 mm 1 mps 770 mmHg 88%
    07:00 +11°C° 0 mm 1 mps 770 mmHg 82%
    08:00 +13°C° 0 mm 1 mps 770 mmHg 76%
    09:00 +15°C° 0 mm 1 mps 770 mmHg 70%
    10:00 +16°C° 0 mm 1 mps 770 mmHg 68%
    11:00 +17°C° 0 mm 2 mps 770 mmHg 66%
    12:00 +18°C° 0 mm 2 mps 770 mmHg 64%
    13:00 +18°C° 0 mm 2 mps 770 mmHg 67%
    14:00 +18°C° 0 mm 3 mps 770 mmHg 70%
    15:00 +18°C° 0 mm 3 mps 770 mmHg 72%
    16:00 +17°C° 0 mm 3 mps 770 mmHg 77%
    17:00 +16°C° 0 mm 2 mps 770 mmHg 82%
    18:00 +15°C° 0 mm 2 mps 770 mmHg 88%
    19:00 +15°C° 0 mm 1 mps 771 mmHg 89%
    20:00 +14°C° 0 mm 1 mps 771 mmHg 90%
    21:00 +14°C° 0 mm 1 mps 772 mmHg 92%
    22:00 +14°C° 0 mm 1 mps 772 mmHg 91%
    23:00 +13°C° 0 mm 0 mps 772 mmHg 91%

    19 Septiembre, Jueves

    Tiempo Temperatura Precipitaciones Viento Presión Humedad
    00:00 +13°C° 0 mm 0 mps 772 mmHg 90%
    01:00 +14°C° 0 mm 1 mps 772 mmHg 90%
    02:00 +14°C° 0 mm 1 mps 772 mmHg 89%
    03:00 +14°C° 0 mm 1 mps 772 mmHg 89%
    04:00 +14°C° 0 mm 2 mps 772 mmHg 88%
    05:00 +13°C° 0 mm 2 mps 773 mmHg 88%
    06:00 +13°C° 0 mm 2 mps 773 mmHg 87%
    07:00 +14°C° 0 mm 2 mps 773 mmHg 85%
    08:00 +14°C° 0 mm 2 mps 773 mmHg 84%
    09:00 +13°C° 0 mm 3 mps 773 mmHg 82%
    10:00 +14°C° 0 mm 3 mps 774 mmHg 80%
    11:00 +14°C° 0 mm 3 mps 774 mmHg 79%
    12:00 +14°C° 0 mm 3 mps 774 mmHg 77%
    13:00 +16°C° 0 mm 3 mps 773 mmHg 75%
    14:00 +17°C° 0 mm 2 mps 773 mmHg 73%
    15:00 +17°C° 0 mm 2 mps 773 mmHg 70%
    16:00 +17°C° 0 mm 2 mps 773 mmHg 74%
    17:00 +16°C° 0 mm 2 mps 773 mmHg 78%
    18:00 +15°C° 0 mm 2 mps 773 mmHg 82%
    19:00 +14°C° 0 mm 2 mps 773 mmHg 83%
    20:00 +13°C° 0 mm 2 mps 774 mmHg 84%
    21:00 +12°C° 0 mm 2 mps 774 mmHg 86%
    22:00 +12°C° 0 mm 2 mps 774 mmHg 85%
    23:00 +10°C° 0 mm 2 mps 774 mmHg 84%

    20 Septiembre, Viernes

    Tiempo Temperatura Precipitaciones Viento Presión Humedad
    00:00 +10°C° 0 mm 2 mps 774 mmHg 83%
    01:00 +9°C° 0 mm 2 mps 773 mmHg 82%
    02:00 +9°C° 0 mm 2 mps 773 mmHg 81%
    03:00 +8°C° 0 mm 2 mps 773 mmHg 80%
    04:00 +8°C° 0 mm 2 mps 773 mmHg 81%
    05:00 +8°C° 0 mm 2 mps 772 mmHg 82%
    06:00 +7°C° 0 mm 2 mps 772 mmHg 83%
    07:00 +9°C° 0 mm 3 mps 772 mmHg 78%
    08:00 +10°C° 0 mm 3 mps 772 mmHg 73%
    09:00 +12°C° 0 mm 3 mps 772 mmHg 67%
    10:00 +13°C° 0 mm 4 mps 772 mmHg 65%
    11:00 +14°C° 0 mm 4 mps 771 mmHg 62%
    12:00 +15°C° 0 mm 4 mps 771 mmHg 59%
    13:00 +17°C° 0 mm 4 mps 770 mmHg 59%
    14:00 +17°C° 0 mm 4 mps 769 mmHg 59%
    15:00 +18°C° 0 mm 4 mps 769 mmHg 59%
    16:00 +15°C° 0 mm 4 mps 768 mmHg 63%
    17:00 +14°C° 0 mm 4 mps 768 mmHg 68%
    18:00 +13°C° 0 mm 3 mps 768 mmHg 73%
    19:00 +12°C° 0 mm 4 mps 768 mmHg 75%
    20:00 +12°C° 0 mm 4 mps 768 mmHg 76%
    21:00 +10°C° 0 mm 5 mps 768 mmHg 78%
    22:00 +10°C° 0 mm 5 mps 767 mmHg 79%
    23:00 +9°C° 0 mm 5 mps 767 mmHg 80%
    Mostrar más